SCP
-0 -0 -0 -0 -0 -0 0 0 0 0 0 0 0 0 0 0 0 0 0 0 0 0 0 0 0 0 0 0 0 0 0 0 0 0 0 0 0 0 0 0 -0 0 0 0
-0 -0 -0 -0 -0 -0 0 0 0 0 0 0 0 0 0 0 0 0 0 0 0 0 0 0 0 0 0 0 0 0 0 0 0 0 0 0 0 0 0 0 0 0 0 0
-0 -0 -0 -0 -0 -0 0 0 0 0 0 0 0 0 0 0 0 0 0 0 0 0 0 0 0 0 0 0 0 0 0 0 0 0 0 0 0 0 0 0 0 0 0 0
-0 -0 -0 -0 -0 -0 0 0 0 0 0 0 0 0 0 0 0 0 0 0 0 0 0 0 0 0 0 0 0 0 0 0 0 0 0 0 0 0 0 0 0 0 0 0
0 0 -0 -0 -0 -0 0 0 0 0 0 0 0 0 0 0 0 0 0 0 0 0 0 0 0 0 0 0 0 0 0 0 0 0 0 0 0 0 0 0 0 0 -0 -0
0 0 0 0 0 0 0 0 0 0 0 0 0 0 0 0 0 0 0 0 0 0 0 0 0 0 0 0 0 0 0 0 0 0 0 0 0 0 0 0 0 0 0 0
0 0 0 0 0 0 0 0 0 0 0 0 0 0 0 0 0 0 0 0 0 0 0 0 0 0 0 0 0 0 0 0 0 0 0 0 0 0 0 0 0 0 0 0
0 0 0 0 0 0 0 0 0 0 0 0 0 0 0 0 0 0 0 0 0 0 0 0 0 0 0 0 0 0 0 0 0 0 0 0 0 0 0 0 0 0 0 0
0 0 0 0 0 0 0 0 0 0 0 0 0 0 0 0 0 0 0 0 0 0 0 0 0 0 0 0 0 0 0 0 0 0 0 0 0 0 0 0 0 0 0 0
0 0 0 0 0 0 0 0 0 0 0 0 0 0 0 0 0 0 0 0 0 0 0 0 0 0 0 0 0 0 0 0 0 0 0 0 0 0 0 0 0 0 0 0
0 0 0 0 0 0 0 0 0 0 0 0 0 0 0 0 0 0 0 0 0 0 0 0 0 0 0 0 0 0 0 0 0 0 0 0 0 0 0 0 0 0 0 0
0 0 0 0 0 0 0 0 0 0 0 0 0 0 0 0 0 0 0 0 0 0 0 0 0 0 0 0 0 0 0 0 0 0 0 0 0 0 0 0 0 0 0 0
0 0 0 0 0 0 0 0 0 0 0 0 0 0 0 0 0 0 0 0 0 0 0 0 0 0 0 0 0 0 0 0 0 0 0 0 0 0 0 0 0 0 0 0
0 0 0 0 0 0 0 0 0 0 0 0 0 0 0 0 0 0 0 0 0 0 0 0 0 0 0 0 0 0 0 0 0 0 0 0 0 0 0 0 0 0 0 0
0 0 0 0 0 0 0 0 0 0 0 0 0 0 0 0 0 0 0 0 0 0 0 0 0 0 0 0 0 0 0 0 0 0 0 0 0 0 0 0 0 0 0 0
0 0 0 0 0 0 0 0 0 0 0 0 0 0 0 0 0 0 0 0 0 0 0 0 0 0 0 0 0 0 0 0 0 0 0 0 0 0 0 0 0 0 0 0
0 0 0 0 0 0 0 0 0 0 0 0 0 0 0 0 0 0 0 0 0 0 0 0 0 0 0 0 0 0 0 0 0 0 0 0 0 0 0 0 0 0 0 0
0 0 0 0 0 0 0 0 0 0 0 0 0 0 0 0 0 0 0 0 0 0 0 0 0 0 0 0 0 0 0 0 0 0 0 0 0 0 0 0 0 0 0 0
0 0 0 0 0 0 0 0 0 0 0 0 0 0 0 0 0 0 0 0 0 0 0 0 0 0 0 0 0 0 0 0 0 0 0 0 0 0 0 0 0 0 0 0
0 0 0 0 0 0 0 0 0 0 0 0 0 0 0 0 0 0 0 0 0 0 0 0 0 0 0 0 0 0 0 0 0 0 0 0 0 0 0 0 0 0 0 0
0 0 0 0 0 0 0 0 0 0 0 0 0 0 0 0 0 0 0 0 0 0 0 0 0 0 0 0 0 0 0 0 0 0 0 0 0 0 0 0 0 0 0 0
0 0 0 0 0 0 0 0 0 0 0 0 0 0 0 0 0 0 0 0 0 0 0 0 0 0 0 0 0 0 0 0 0 0 0 0 0 0 0 0 0 0 0 0
0 0 0 0 0 0 0 0 0 0 0 0 0 0 0 0 0 0 0 0 0 0 0 0 0 0 0 0 0 0 0 0 0 0 0 0 0 0 0 0 0 0 0 0
0 0 0 0 0 0 0 0 0 0 0 0 0 0 0 0 0 0 0 0 0 0 0 0 0 0 0 0 0 0 0 0 0 0 0 0 0 0 0 0 0 0 0 0
0 0 0 0 0 0 0 0 0 0 0 0 0 0 0 0 0 0 0 0 0 0 0 0 0 0 0 0 0 0 -0 0 0 0 0 0 0 0 0 0 0 0 0 0
0 0 0 0 0 0 0 0 0 0 0 0 0 0 0 0 0 0 0 0 0 0 0 0 0 0 0 0 -0 -0 -0 0 0 0 0 0 0 0 0 0 0 0 0 0
0 0 0 0 0 0 0 0 0 0 0 0 0 0 0 0 0 0 0 0 0 0 0 0 0 0 0 -0 -0 0 -0 0 0 0 0 0 0 0 0 0 0 0 0 0
Wind_Speed_500mb
62 63 65 67 60 43 10 4 3 11 10 6 5 4 2 7 4 10 6 6 5 5 6 6 4 4 3 18 4 3 3 2 6 4 4 9 6 6 3 6 8 1 5 2
63 62 61 62 61 49 28 6 5 15 8 4 4 3 2 4 4 9 6 4 5 4 4 3 2 3 2 13 6 2 6 1 8 2 8 7 3 4 3 3 1 5 6 3
61 61 60 57 55 46 24 7 1 11 17 12 4 3 4 2 10 7 7 5 4 4 3 4 5 2 1 8 6 9 7 5 8 7 6 3 9 7 2 5 7 2 11 16
55 58 59 57 52 40 19 13 7 6 5 8 7 2 2 3 4 8 10 5 6 3 4 2 2 2 6 1 4 2 3 6 8 14 15 10 16 19 16 17 15 11 10 12
48 50 53 54 50 39 33 10 8 7 3 6 3 5 4 4 3 5 4 4 2 2 2 4 5 6 6 8 1 3 1 7 7 11 19 21 26 30 29 27 18 18 24 29
42 42 44 47 47 42 22 24 15 5 6 3 2 3 3 6 4 3 4 1 2 4 1 12 20 20 16 12 8 8 6 7 8 10 0 6 17 31 35 29 26 19 21 17
37 36 35 35 38 37 30 31 14 7 2 4 3 4 7 6 6 5 6 7 5 6 29 19 14 18 16 14 15 21 12 9 5 6 4 11 3 6 8 16 12 19 15 13
36 31 29 27 25 26 25 22 16 8 5 5 5 1 2 8 6 5 6 1 9 21 11 6 8 4 6 5 6 3 16 11 6 7 12 10 5 6 2 7 12 17 14 10
35 31 27 24 22 18 19 14 13 7 5 3 5 4 4 4 4 5 5 3 12 6 2 3 5 5 3 3 4 13 9 3 7 6 8 10 5 6 5 4 13 9 18 12
35 34 30 27 24 19 16 13 12 6 7 9 7 8 3 3 2 5 6 11 4 5 4 8 8 8 1 5 5 5 6 5 15 12 10 10 5 9 6 12 4 14 7 8
36 36 34 31 29 26 19 16 12 8 9 28 32 27 16 11 9 5 1 7 5 2 6 5 4 6 2 5 4 3 4 6 6 5 9 11 6 3 7 7 9 7 5 4
35 36 36 34 31 30 26 22 18 16 18 21 36 48 47 39 27 9 5 7 3 5 4 4 3 6 5 3 6 5 7 5 3 9 3 3 10 13 8 6 9 10 10 10
35 37 35 36 34 32 31 29 24 21 18 35 33 13 11 26 46 54 18 14 20 12 12 8 2 8 5 6 8 5 5 5 6 5 5 12 19 22 19 19 29 25 22 23
33 34 35 35 36 33 33 29 26 20 10 9 12 8 12 15 12 20 23 31 15 10 11 4 4 6 11 5 7 7 5 6 9 16 32 20 27 29 32 48 37 31 40 36
28 30 33 33 35 30 33 34 34 27 19 8 21 53 39 33 42 41 37 36 35 9 6 7 8 6 7 5 4 11 14 15 9 13 33 20 32 41 43 33 42 53 41 45
25 25 29 29 28 25 18 9 25 37 35 9 7 14 19 20 14 22 29 32 33 19 11 11 11 14 14 9 9 10 22 24 34 36 36 29 55 56 52 40 37 40 44 51
23 22 21 21 22 27 22 9 7 16 30 8 9 10 7 3 15 22 31 40 26 21 12 12 17 13 21 7 21 28 41 50 43 42 31 30 25 22 44 46 50 45 47 48
20 19 18 11 13 23 37 21 16 23 17 10 6 7 7 5 8 11 15 13 22 19 13 6 10 8 11 10 16 34 29 31 34 8 13 23 32 35 32 34 40 41 40 47
20 18 8 8 8 11 13 36 26 23 20 8 9 5 3 1 2 4 7 10 7 7 8 9 15 9 12 9 11 7 11 11 17 15 12 20 24 29 37 43 43 42 45 50
14 9 6 6 8 9 11 17 15 13 17 13 9 7 5 4 3 5 3 3 3 5 5 9 8 13 9 13 12 8 13 14 16 20 31 41 47 51 52 52 53 53 56 56
13 10 9 8 15 14 10 8 10 13 8 15 26 37 14 6 6 1 2 2 2 5 5 6 6 6 8 18 21 19 8 8 20 25 35 41 43 49 51 53 54 55 58 59
17 12 14 12 11 11 9 8 9 10 11 13 13 15 27 19 14 7 5 6 4 10 9 6 6 4 16 23 17 5 8 18 25 32 41 41 42 43 47 54 60 61 60 60
19 13 8 13 13 14 12 17 8 9 9 15 15 9 18 13 21 13 9 11 12 10 7 7 1 13 21 16 2 10 16 23 32 44 46 42 45 47 52 57 59 59 66 70
8 11 6 9 10 11 9 11 5 12 8 16 16 10 11 12 12 8 10 10 6 6 7 7 8 22 20 3 9 21 28 33 41 50 51 45 50 53 72 77 66 62 65 67
10 9 9 13 16 11 6 11 9 9 7 7 4 8 11 6 8 7 5 10 8 7 5 4 21 24 7 7 16 26 35 42 48 55 52 50 54 59 68 69 62 64 56 47
8 11 9 11 8 12 13 12 16 18 21 11 11 6 6 9 6 9 12 9 8 5 4 15 23 13 5 16 25 32 39 43 51 59 49 46 55 57 61 59 56 48 41 35
7 10 18 19 14 10 6 4 17 11 11 7 4 8 3 7 6 6 6 6 7 19 16 15 8 5 13 22 29 35 41 45 56 49 39 49 57 59 63 50 47 46 41 32
Wind_Direction_500mb
3 4 6 4 3 10 20 95 92 350 357 39 31 89 319 340 313 25 80 85 70 50 43 57 86 102 335 346 280 67 34 54 313 320 310 301 308 356 328 269 177 223 318 199
1 1 4 7 4 7 13 37 34 25 17 87 49 340 66 346 24 36 31 96 24 54 78 119 176 198 121 16 58 116 165 7 310 203 156 191 311 357 67 114 200 204 242 130
356 359 0 6 6 5 10 11 19 31 53 63 39 25 16 100 27 65 52 78 132 131 105 34 166 181 299 348 104 111 147 155 247 285 312 316 265 263 226 295 263 179 254 293
348 353 357 1 10 10 14 32 63 31 8 45 38 7 346 9 29 29 32 94 64 118 140 344 271 273 313 204 32 102 261 234 207 253 249 242 260 264 252 245 271 255 305 272
339 346 352 357 7 17 40 50 20 4 35 324 310 6 52 21 28 353 16 96 71 75 138 264 269 218 209 265 157 140 3 273 200 259 255 242 258 260 258 257 256 253 271 276
329 337 347 354 3 19 41 25 11 23 352 1 247 47 5 36 328 147 54 319 237 238 26 300 276 262 274 284 277 271 258 206 197 267 347 285 258 248 243 242 252 251 253 274
319 327 336 348 0 12 24 19 15 1 346 322 40 6 343 347 348 289 330 16 352 344 318 298 271 257 267 254 252 234 217 190 204 273 239 244 19 217 270 222 252 220 255 249
306 310 319 331 346 358 5 9 19 1 311 296 288 211 295 308 309 233 266 297 318 315 325 280 297 227 177 136 35 260 211 173 181 237 221 310 229 132 172 221 212 223 236 207
296 297 297 305 319 334 346 350 4 350 309 210 264 314 309 302 317 288 258 302 319 325 30 209 248 272 341 256 188 63 148 102 227 166 246 245 69 42 11 202 254 325 232 209
287 287 286 284 291 301 315 321 328 328 274 277 236 229 261 258 213 261 301 336 327 7 192 218 224 241 239 257 265 185 149 159 218 215 251 278 252 327 146 212 300 348 316 263
286 279 277 276 275 278 280 288 291 294 266 276 270 261 250 242 217 229 18 284 196 196 209 223 183 229 151 259 264 259 249 201 197 177 224 258 28 195 248 355 349 326 335 10
286 278 271 268 268 267 265 263 265 275 269 268 279 278 269 254 247 249 258 294 269 222 133 200 161 208 211 228 256 170 239 246 340 233 297 299 290 285 293 315 311 301 300 299
283 278 272 264 257 258 259 253 253 277 288 299 279 278 276 247 250 240 231 249 230 226 205 155 129 237 174 231 241 278 197 179 249 284 240 251 282 270 269 307 296 276 284 294
281 275 271 266 259 248 246 253 248 248 259 266 276 268 251 241 215 192 234 238 232 212 177 182 175 229 200 224 296 236 265 193 245 260 281 278 277 287 297 304 282 278 285 285
285 278 270 262 260 252 246 244 243 229 223 276 289 294 289 260 242 244 242 234 216 232 217 203 215 175 184 198 276 252 204 237 229 269 281 274 283 302 306 293 285 290 281 273
289 285 279 272 259 241 241 277 251 231 222 254 284 290 276 272 244 193 192 205 214 218 210 223 220 214 200 222 241 244 231 248 252 260 287 286 289 295 305 297 302 298 289 278
306 298 285 271 251 212 186 209 190 184 190 231 269 263 250 247 201 216 221 220 215 207 222 230 244 209 190 239 250 269 277 274 285 283 290 284 297 300 301 299 297 294 288 281
300 295 295 262 235 218 216 189 204 171 187 225 258 262 279 199 182 177 183 176 193 210 227 213 211 165 202 249 243 259 276 289 298 341 316 294 302 307 312 319 320 315 300 287
299 301 261 152 195 209 226 206 207 209 217 231 212 240 210 339 123 143 153 175 190 190 227 215 178 192 223 220 249 294 302 311 316 340 2 348 339 332 324 319 313 309 305 303
295 174 158 191 207 196 179 177 192 228 210 231 241 241 265 6 63 108 205 171 210 228 205 144 218 248 243 248 259 196 126 84 24 358 345 333 322 316 311 306 301 295 290 290
187 193 211 183 168 173 183 203 203 197 220 209 218 227 217 237 246 89 13 345 189 239 168 226 223 245 185 157 144 141 128 349 340 331 320 312 301 299 301 301 299 297 293 288
194 212 189 172 203 183 210 200 196 218 218 203 200 216 207 224 234 217 202 235 194 242 139 222 246 163 160 165 163 173 314 318 315 319 313 308 306 306 303 302 299 294 292 285
237 202 201 207 199 225 210 186 199 209 215 198 178 169 157 155 183 194 195 209 217 129 206 224 177 140 164 162 211 330 327 315 316 326 326 317 315 312 311 306 309 301 299 298
215 190 259 213 193 220 204 198 208 211 235 180 177 158 182 173 172 191 202 189 172 220 224 216 151 171 160 87 338 330 328 329 327 327 324 314 312 319 324 316 309 308 309 297
224 218 226 223 242 252 258 230 239 246 229 258 206 221 187 172 202 200 183 175 217 221 214 142 156 162 158 333 335 328 327 326 324 325 320 315 317 322 319 322 316 313 310 307
235 234 266 247 231 243 220 249 288 275 270 250 225 211 189 202 182 186 198 181 197 145 154 140 156 170 285 322 323 327 326 322 323 324 321 318 322 326 325 329 336 330 318 310
234 237 243 270 317 297 353 218 13 355 264 220 224 213 189 138 134 224 188 200 137 142 131 135 164 271 321 321 321 324 326 326 329 327 328 325 327 321 317 324 334 340 336 331
Wind_Speed_850mb
62 63 65 67 60 43 10 4 3 11 10 6 5 4 2 7 4 10 6 6 5 5 6 6 4 4 3 18 4 3 3 2 6 4 4 9 6 6 3 6 8 1 5 2
63 62 61 62 61 49 28 6 5 15 8 4 4 3 2 4 4 9 6 4 5 4 4 3 2 3 2 13 6 2 6 1 8 2 8 7 3 4 3 3 1 5 6 3
61 61 60 57 55 46 24 7 1 11 17 12 4 3 4 2 10 7 7 5 4 4 3 4 5 2 1 8 6 9 7 5 8 7 6 3 9 7 2 5 7 2 11 16
55 58 59 57 52 40 19 13 7 6 5 8 7 2 2 3 4 8 10 5 6 3 4 2 2 2 6 1 4 2 3 6 8 14 15 10 16 19 16 17 15 11 10 12
48 50 53 54 50 39 33 10 8 7 3 6 3 5 4 4 3 5 4 4 2 2 2 4 5 6 6 8 1 3 1 7 7 11 19 21 26 30 29 27 18 18 24 29
42 42 44 47 47 42 22 24 15 5 6 3 2 3 3 6 4 3 4 1 2 4 1 12 20 20 16 12 8 8 6 7 8 10 0 6 17 31 35 29 26 19 21 17
37 36 35 35 38 37 30 31 14 7 2 4 3 4 7 6 6 5 6 7 5 6 29 19 14 18 16 14 15 21 12 9 5 6 4 11 3 6 8 16 12 19 15 13
36 31 29 27 25 26 25 22 16 8 5 5 5 1 2 8 6 5 6 1 9 21 11 6 8 4 6 5 6 3 16 11 6 7 12 10 5 6 2 7 12 17 14 10
35 31 27 24 22 18 19 14 13 7 5 3 5 4 4 4 4 5 5 3 12 6 2 3 5 5 3 3 4 13 9 3 7 6 8 10 5 6 5 4 13 9 18 12
35 34 30 27 24 19 16 13 12 6 7 9 7 8 3 3 2 5 6 11 4 5 4 8 8 8 1 5 5 5 6 5 15 12 10 10 5 9 6 12 4 14 7 8
36 36 34 31 29 26 19 16 12 8 9 28 32 27 16 11 9 5 1 7 5 2 6 5 4 6 2 5 4 3 4 6 6 5 9 11 6 3 7 7 9 7 5 4
35 36 36 34 31 30 26 22 18 16 18 21 36 48 47 39 27 9 5 7 3 5 4 4 3 6 5 3 6 5 7 5 3 9 3 3 10 13 8 6 9 10 10 10
35 37 35 36 34 32 31 29 24 21 18 35 33 13 11 26 46 54 18 14 20 12 12 8 2 8 5 6 8 5 5 5 6 5 5 12 19 22 19 19 29 25 22 23
33 34 35 35 36 33 33 29 26 20 10 9 12 8 12 15 12 20 23 31 15 10 11 4 4 6 11 5 7 7 5 6 9 16 32 20 27 29 32 48 37 31 40 36
28 30 33 33 35 30 33 34 34 27 19 8 21 53 39 33 42 41 37 36 35 9 6 7 8 6 7 5 4 11 14 15 9 13 33 20 32 41 43 33 42 53 41 45
25 25 29 29 28 25 18 9 25 37 35 9 7 14 19 20 14 22 29 32 33 19 11 11 11 14 14 9 9 10 22 24 34 36 36 29 55 56 52 40 37 40 44 51
23 22 21 21 22 27 22 9 7 16 30 8 9 10 7 3 15 22 31 40 26 21 12 12 17 13 21 7 21 28 41 50 43 42 31 30 25 22 44 46 50 45 47 48
20 19 18 11 13 23 37 21 16 23 17 10 6 7 7 5 8 11 15 13 22 19 13 6 10 8 11 10 16 34 29 31 34 8 13 23 32 35 32 34 40 41 40 47
20 18 8 8 8 11 13 36 26 23 20 8 9 5 3 1 2 4 7 10 7 7 8 9 15 9 12 9 11 7 11 11 17 15 12 20 24 29 37 43 43 42 45 50
14 9 6 6 8 9 11 17 15 13 17 13 9 7 5 4 3 5 3 3 3 5 5 9 8 13 9 13 12 8 13 14 16 20 31 41 47 51 52 52 53 53 56 56
13 10 9 8 15 14 10 8 10 13 8 15 26 37 14 6 6 1 2 2 2 5 5 6 6 6 8 18 21 19 8 8 20 25 35 41 43 49 51 53 54 55 58 59
17 12 14 12 11 11 9 8 9 10 11 13 13 15 27 19 14 7 5 6 4 10 9 6 6 4 16 23 17 5 8 18 25 32 41 41 42 43 47 54 60 61 60 60
19 13 8 13 13 14 12 17 8 9 9 15 15 9 18 13 21 13 9 11 12 10 7 7 1 13 21 16 2 10 16 23 32 44 46 42 45 47 52 57 59 59 66 70
8 11 6 9 10 11 9 11 5 12 8 16 16 10 11 12 12 8 10 10 6 6 7 7 8 22 20 3 9 21 28 33 41 50 51 45 50 53 72 77 66 62 65 67
10 9 9 13 16 11 6 11 9 9 7 7 4 8 11 6 8 7 5 10 8 7 5 4 21 24 7 7 16 26 35 42 48 55 52 50 54 59 68 69 62 64 56 47
8 11 9 11 8 12 13 12 16 18 21 11 11 6 6 9 6 9 12 9 8 5 4 15 23 13 5 16 25 32 39 43 51 59 49 46 55 57 61 59 56 48 41 35
7 10 18 19 14 10 6 4 17 11 11 7 4 8 3 7 6 6 6 6 7 19 16 15 8 5 13 22 29 35 41 45 56 49 39 49 57 59 63 50 47 46 41 32
Wind_Direction_850mb
3 4 6 4 3 10 20 95 92 350 357 39 31 89 319 340 313 25 80 85 70 50 43 57 86 102 335 346 280 67 34 54 313 320 310 301 308 356 328 269 177 223 318 199
1 1 4 7 4 7 13 37 34 25 17 87 49 340 66 346 24 36 31 96 24 54 78 119 176 198 121 16 58 116 165 7 310 203 156 191 311 357 67 114 200 204 242 130
356 359 0 6 6 5 10 11 19 31 53 63 39 25 16 100 27 65 52 78 132 131 105 34 166 181 299 348 104 111 147 155 247 285 312 316 265 263 226 295 263 179 254 293
348 353 357 1 10 10 14 32 63 31 8 45 38 7 346 9 29 29 32 94 64 118 140 344 271 273 313 204 32 102 261 234 207 253 249 242 260 264 252 245 271 255 305 272
339 346 352 357 7 17 40 50 20 4 35 324 310 6 52 21 28 353 16 96 71 75 138 264 269 218 209 265 157 140 3 273 200 259 255 242 258 260 258 257 256 253 271 276
329 337 347 354 3 19 41 25 11 23 352 1 247 47 5 36 328 147 54 319 237 238 26 300 276 262 274 284 277 271 258 206 197 267 347 285 258 248 243 242 252 251 253 274
319 327 336 348 0 12 24 19 15 1 346 322 40 6 343 347 348 289 330 16 352 344 318 298 271 257 267 254 252 234 217 190 204 273 239 244 19 217 270 222 252 220 255 249
306 310 319 331 346 358 5 9 19 1 311 296 288 211 295 308 309 233 266 297 318 315 325 280 297 227 177 136 35 260 211 173 181 237 221 310 229 132 172 221 212 223 236 207
296 297 297 305 319 334 346 350 4 350 309 210 264 314 309 302 317 288 258 302 319 325 30 209 248 272 341 256 188 63 148 102 227 166 246 245 69 42 11 202 254 325 232 209
287 287 286 284 291 301 315 321 328 328 274 277 236 229 261 258 213 261 301 336 327 7 192 218 224 241 239 257 265 185 149 159 218 215 251 278 252 327 146 212 300 348 316 263
286 279 277 276 275 278 280 288 291 294 266 276 270 261 250 242 217 229 18 284 196 196 209 223 183 229 151 259 264 259 249 201 197 177 224 258 28 195 248 355 349 326 335 10
286 278 271 268 268 267 265 263 265 275 269 268 279 278 269 254 247 249 258 294 269 222 133 200 161 208 211 228 256 170 239 246 340 233 297 299 290 285 293 315 311 301 300 299
283 278 272 264 257 258 259 253 253 277 288 299 279 278 276 247 250 240 231 249 230 226 205 155 129 237 174 231 241 278 197 179 249 284 240 251 282 270 269 307 296 276 284 294
281 275 271 266 259 248 246 253 248 248 259 266 276 268 251 241 215 192 234 238 232 212 177 182 175 229 200 224 296 236 265 193 245 260 281 278 277 287 297 304 282 278 285 285
285 278 270 262 260 252 246 244 243 229 223 276 289 294 289 260 242 244 242 234 216 232 217 203 215 175 184 198 276 252 204 237 229 269 281 274 283 302 306 293 285 290 281 273
289 285 279 272 259 241 241 277 251 231 222 254 284 290 276 272 244 193 192 205 214 218 210 223 220 214 200 222 241 244 231 248 252 260 287 286 289 295 305 297 302 298 289 278
306 298 285 271 251 212 186 209 190 184 190 231 269 263 250 247 201 216 221 220 215 207 222 230 244 209 190 239 250 269 277 274 285 283 290 284 297 300 301 299 297 294 288 281
300 295 295 262 235 218 216 189 204 171 187 225 258 262 279 199 182 177 183 176 193 210 227 213 211 165 202 249 243 259 276 289 298 341 316 294 302 307 312 319 320 315 300 287
299 301 261 152 195 209 226 206 207 209 217 231 212 240 210 339 123 143 153 175 190 190 227 215 178 192 223 220 249 294 302 311 316 340 2 348 339 332 324 319 313 309 305 303
295 174 158 191 207 196 179 177 192 228 210 231 241 241 265 6 63 108 205 171 210 228 205 144 218 248 243 248 259 196 126 84 24 358 345 333 322 316 311 306 301 295 290 290
187 193 211 183 168 173 183 203 203 197 220 209 218 227 217 237 246 89 13 345 189 239 168 226 223 245 185 157 144 141 128 349 340 331 320 312 301 299 301 301 299 297 293 288
194 212 189 172 203 183 210 200 196 218 218 203 200 216 207 224 234 217 202 235 194 242 139 222 246 163 160 165 163 173 314 318 315 319 313 308 306 306 303 302 299 294 292 285
237 202 201 207 199 225 210 186 199 209 215 198 178 169 157 155 183 194 195 209 217 129 206 224 177 140 164 162 211 330 327 315 316 326 326 317 315 312 311 306 309 301 299 298
215 190 259 213 193 220 204 198 208 211 235 180 177 158 182 173 172 191 202 189 172 220 224 216 151 171 160 87 338 330 328 329 327 327 324 314 312 319 324 316 309 308 309 297
224 218 226 223 242 252 258 230 239 246 229 258 206 221 187 172 202 200 183 175 217 221 214 142 156 162 158 333 335 328 327 326 324 325 320 315 317 322 319 322 316 313 310 307
235 234 266 247 231 243 220 249 288 275 270 250 225 211 189 202 182 186 198 181 197 145 154 140 156 170 285 322 323 327 326 322 323 324 321 318 322 326 325 329 336 330 318 310
234 237 243 270 317 297 353 218 13 355 264 220 224 213 189 138 134 224 188 200 137 142 131 135 164 271 321 321 321 324 326 326 329 327 328 325 327 321 317 324 334 340 336 331